Flag for China Weather past 2 weeks in Nanjing, Jiangsu, China

Now
72 °F

Sprinkles. Passing clouds.


Feels Like: 74 °F
Forecast: 64 / 87 °F
Wind: 1 mph from North

Location: Nanjing

Current Time: Apr 27, 2015 at 10:40:52 PM

Latest Report: Apr 27, 2015 at 10:00 PM


Visibility: 6 mi

Pressure: 29.74 "Hg

Humidity: 73%

Dew point: 63 °F

Location of NanjingLocation

Historic Weather in Nanjing — Graph

°F

Nanjing temperature yesterday

Maximum temperature yesterday: 86 °F (at 2:00 PM)
Minimum temperature yesterday: 55 °F (at 6:00 AM)
Average temperature yesterday: 72 °F

Past Weeks' High & Low Weather Summary

 TemperatureHumidityPressure
High86 °F (Apr 26, 2:00 PM)100% (Apr 15, 6:00 AM)30.24 "Hg (Apr 15, 6:00 AM)
Low41 °F (Apr 13, 6:00 AM)19% (Apr 26, 11:00 AM)29.62 "Hg (Apr 19, 3:00 PM)
Average63 °F65%29.97 "Hg
* Reported Apr 12 9:00 PM — Apr 27 9:00 PM, Nanjing, Weather by CustomWeather, © 2015

Note: Actual official high and low records may vary slightly from our data, if they occured in-between our weather recording intervals... More about our weather records

Advertising

Nanjing weather history for previous 24 hours

 ConditionsComfort  
Time TempWeatherWind HumidityBarometerVisibility
9:00 PM
Mon, Apr 27
72 °FPassing clouds.3 mph73%29.74 "HgN/A
8:00 PM75 °FClear.6 mph61%29.74 "Hg10 mi
7:00 PM77 °FClear.3 mph54%29.71 "Hg10 mi
6:00 PM79 °FSunny.3 mph51%29.74 "Hg10 mi
5:00 PM81 °FSunny.8 mph48%29.74 "Hg10 mi
4:00 PM82 °FPassing clouds.6 mph42%29.74 "HgN/A
3:00 PM84 °FPassing clouds.8 mph45%29.77 "HgN/A
2:00 PM84 °FPassing clouds.8 mph40%29.80 "HgN/A
1:00 PM84 °FSunny.10 mph43%29.83 "Hg10 mi
12:00 PM82 °FSunny.13 mph45%29.86 "Hg10 mi
11:00 AM81 °FPassing clouds.10 mph48%29.89 "HgN/A
10:00 AM81 °FPassing clouds.10 mph48%29.89 "HgN/A
9:00 AM75 °FSunny.1 mph57%29.89 "Hg10 mi
8:00 AM70 °FSunny.1 mph64%29.92 "Hg10 mi
7:00 AM63 °FSunny.1 mph77%29.89 "Hg10 mi
6:00 AM59 °FClear.No wind82%29.89 "Hg5 mi
5:00 AM57 °FClear.1 mph88%29.89 "Hg5 mi
4:00 AM57 °FClear.3 mph88%29.89 "Hg4 mi
3:00 AM59 °FClear.3 mph82%29.89 "Hg5 mi
2:00 AM63 °FPassing clouds.3 mph68%29.89 "HgN/A
1:00 AM63 °FClear.3 mph68%29.92 "Hg10 mi
12:00 AM66 °FClear.6 mph56%29.92 "Hg10 mi
11:00 PM
Sun, Apr 26
66 °FClear.6 mph60%29.95 "Hg10 mi
10:00 PM68 °FClear.3 mph53%29.95 "Hg10 mi
Weather by CustomWeather, © 2015

See weather overviewHow to use our weather pages